sat.trackr.live / text

‹ back to catalog

LEO EXPRESS 1

NORAD 58301 · 2023-174AX

PAYLOAD ACTIVE UNKNOWN

§ Identity

Operator
Country
US
Launch date
2023-11-11
Launch site
AFWTR
Launch vehicle
Mass (kg)
RCS (m²)

External: N2YO · Heavens-Above · Gunter

§ Orbital elements

Epoch: 2026-05-25T05:29:35.371968Z

Period
93.84 min
Inclination
97.5188°
Eccentricity
0.0073762
Mean motion
15.34590422 rev/d
Perigee alt
411.7 km
Apogee alt
512.6 km
Semi-major
6,840.3 km
B*
3.5665e-4
RAAN
230.2560°
Arg perigee
202.7530°
Mean anomaly
157.0438°
Rev number
14,137

§ Raw data

LEO EXPRESS 11 58301U 23174AX  26145.22888162  .00012981  00000+0  35665-3 0  99972 58301  97.5188 230.2560 0073762 202.7530 157.0438 15.34590422141378

JSON: /api/v1/satellites/58301 · /tle

For live sub-satellite position, see the globe view (requires WebGL).

§ Visibility from observer

Set your observer location to see the next 7 days of passes ≥ 10°. The values pass through the URL so the page stays shareable.

No JS? Fill the form by hand. The geolocation button needs JavaScript.

§ Radio — SatNOGS DB

ModeDescriptionDownlinkUplink
FM Mode U - Transmitter 402.680 MHz

1 transmitter · refreshed weekly from db.satnogs.org